Location: Beetenbrück
(52.8113°N, 9.5946°E)
Time: 21:36:01
(UTC+00:00)

Cosmos 1943 Rocket - Pass Details

Date: 14 April 2026
Orbit: 809 x 844 km, 71.0° (Epoch: 12 May)

Event Time Altitude Azimuth Distance (km) Brightness Sun altitude
Rises 19:02:23 0° 328° (NNW) 3,414 6.5 -6.9°
Reaches altitude 10° 19:04:51 10° 331° (NNW) 2,476 5.6 -7.2°
Maximum altitude 19:10:32 69° 55° (NE) 905 2.3 -8.0°
Drops below altitude 10° 19:16:10 10° 139° (SE) 2,456 4.0 -8.7°
Enters shadow 19:16:26 - 140° (SE) 2,556 4.1 -8.8°
